Hereford, TX

8:30 PM CDT on July 23, 2017 (GMT -0500)
Hereford Municipal

Weather History for KHRX - July, 2013

Change the Weather History Date:

Monday, July 29, 2013

  Actual Average (KCVN) Record (KCVN)
Temperature  
Mean Temperature 82 °F -  
Max Temperature 97 °F 89 °F 105 °F (1917)
Min Temperature 68 °F 63 °F 53 °F (2005)
Cooling Degree Days 17    
Growing Degree Days 32 (Base 50)    
Moisture  
Dew Point 60 °F    
Average Humidity 51    
Maximum Humidity 85    
Minimum Humidity 23    
Precipitation  
Precipitation 0.00 in - - ()
Sea Level Pressure  
Sea Level Pressure 29.98 in    
Wind  
Wind Speed 13 mph (South)    
Max Wind Speed 25 mph    
Max Gust Speed 33 mph    
Visibility 10 miles    
Events      
Averages and records for this station are not official NWS values.
T = Trace of Precipitation, MM = Missing Value Source: NWS Daily Summary

Daily Weather History Graph

Daily Weather History Graph

Search for Another Location

Airport or City:

Trip Planner

Search our weather history database for the weather conditions in past years. The results will help you decide how hot, cold, wet, or windy it might be!

Date:

Astronomy

Jul. 29, 2013 Rise Set
Actual Time 6:57 AM CDT 8:54 PM CDT
Civil Twilight 6:29 AM CDT 9:21 PM CDT
Nautical Twilight 5:55 AM CDT 9:55 PM CDT
Astronomical Twilight 5:18 AM CDT 10:31 PM CDT
Moon 12:37 AM CDT (7/29) 2:20 PM CDT (7/29)
Length of Visible Light 14h 52m
Length of Day
13h 57m
Waning Gibbous, 50% of the Moon is Illuminated
Jul 29
Waning Gibbous
Jul 29
Last Quarter
Aug 6
New
Aug 14
First Quarter
Aug 20
Full

Hourly Weather History & Observations

Time (CDT) Temp. Heat Index Dew Point Humidity Pressure Visibility Wind Dir Wind Speed Gust Speed Precip Events Conditions
12:15 AM 74.7 °F - 55.8 °F 52% 30.00 in 10.0 mi SSE 12.7 mph 19.6 mph N/A   Clear
12:35 AM 74.5 °F - 55.9 °F 52% 30.01 in 10.0 mi SSE 9.2 mph - N/A   Mostly Cloudy
12:55 AM 74.3 °F - 55.9 °F 53% 30.01 in 10.0 mi SSE 10.4 mph 16.1 mph N/A   Overcast
1:15 AM 73.8 °F - 55.9 °F 54% 30.00 in 10.0 mi SSE 13.8 mph - N/A   Scattered Clouds
1:35 AM 73.4 °F - 56.1 °F 55% 30.00 in 10.0 mi SSE 11.5 mph - N/A   Scattered Clouds
1:55 AM 72.7 °F - 56.7 °F 57% 30.00 in 10.0 mi SSE 9.2 mph - N/A   Clear
2:15 AM 72.7 °F - 57.2 °F 58% 29.99 in 10.0 mi SSE 11.5 mph - N/A   Clear
2:55 AM 71.6 °F - 59.2 °F 65% 30.00 in 10.0 mi South 13.8 mph 20.7 mph N/A   Clear
3:15 AM 70.9 °F - 60.1 °F 69% 30.00 in 10.0 mi SSE 11.5 mph - N/A   Clear
3:35 AM 71.6 °F - 61.7 °F 71% 29.99 in 10.0 mi South 12.7 mph 18.4 mph N/A   Scattered Clouds
3:55 AM 71.2 °F - 62.2 °F 73% 29.99 in 10.0 mi South 12.7 mph 17.3 mph N/A   Scattered Clouds
4:15 AM 70.9 °F - 62.6 °F 75% 29.98 in 10.0 mi South 11.5 mph 17.3 mph N/A   Clear
4:35 AM 70.0 °F - 62.6 °F 77% 29.98 in 10.0 mi South 10.4 mph - N/A   Clear
4:55 AM 69.8 °F - 62.6 °F 78% 29.98 in 10.0 mi South 6.9 mph - N/A   Clear
5:15 AM 68.9 °F - 62.8 °F 81% 29.98 in 10.0 mi SSE 6.9 mph - N/A   Clear
5:35 AM 69.4 °F - 63.1 °F 80% 29.98 in 10.0 mi South 6.9 mph - N/A   Clear
5:55 AM 70.0 °F - 63.5 °F 80% 29.98 in 10.0 mi South 8.1 mph - N/A   Clear
6:15 AM 69.8 °F - 63.5 °F 80% 29.98 in 10.0 mi South 6.9 mph - N/A   Clear
6:35 AM 69.1 °F - 63.5 °F 82% 29.99 in 10.0 mi SSW 6.9 mph - N/A   Clear
6:55 AM 68.4 °F - 63.7 °F 85% 29.99 in 10.0 mi SSE 8.1 mph - N/A   Clear
7:15 AM 68.7 °F - 63.9 °F 84% 30.00 in 10.0 mi SSE 6.9 mph - N/A   Clear
7:35 AM 69.6 °F - 64.0 °F 82% 30.00 in 10.0 mi South 8.1 mph - N/A   Clear
7:55 AM 70.0 °F - 64.4 °F 82% 30.01 in 10.0 mi South 9.2 mph - N/A   Clear
8:15 AM 71.2 °F - 64.6 °F 79% 30.01 in 10.0 mi South 11.5 mph 18.4 mph N/A   Clear
8:35 AM 72.5 °F - 64.8 °F 77% 30.01 in 10.0 mi South 16.1 mph - N/A   Clear
8:55 AM 74.1 °F - 65.3 °F 74% 30.02 in 10.0 mi South 13.8 mph 18.4 mph N/A   Clear
9:15 AM 76.5 °F - 65.3 °F 68% 30.02 in 10.0 mi SSW 11.5 mph 19.6 mph N/A   Clear
9:35 AM 78.3 °F - 65.1 °F 64% 30.02 in 10.0 mi SSW 16.1 mph 21.9 mph N/A   Clear
9:55 AM 78.6 °F - 64.8 °F 62% 30.02 in 10.0 mi SSW 13.8 mph 23.0 mph N/A   Clear
10:15 AM 80.1 °F 81.8 °F 64.4 °F 59% 30.01 in 10.0 mi South 17.3 mph 25.3 mph N/A   Clear
10:35 AM 80.8 °F 82.1 °F 63.3 °F 55% 30.02 in 10.0 mi SSW 17.3 mph 23.0 mph N/A   Clear
10:55 AM 82.0 °F 83.3 °F 63.3 °F 53% 30.01 in 10.0 mi SW 17.3 mph 21.9 mph N/A   Clear
11:15 AM 83.3 °F 84.4 °F 63.5 °F 51% 30.01 in 10.0 mi SSW 16.1 mph 21.9 mph N/A   Clear
11:35 AM 84.7 °F 85.4 °F 62.2 °F 47% 30.01 in 10.0 mi SSW 16.1 mph 23.0 mph N/A   Clear
11:55 AM 86.7 °F 86.8 °F 61.0 °F 42% 30.01 in 10.0 mi SW 16.1 mph - N/A   Clear
12:15 PM 87.8 °F 88.2 °F 61.9 °F 42% 30.01 in 10.0 mi SSW 16.1 mph 21.9 mph N/A   Clear
12:35 PM 88.0 °F 87.9 °F 61.2 °F 40% 30.01 in 10.0 mi SSW 16.1 mph 20.7 mph N/A   Clear
12:55 PM 87.6 °F 87.2 °F 60.1 °F 39% 30.00 in 10.0 mi SSW 16.1 mph 23.0 mph N/A   Clear
1:15 PM 89.1 °F 88.2 °F 59.2 °F 36% 30.00 in 10.0 mi SSW 13.8 mph 23.0 mph N/A   Clear
1:35 PM 90.3 °F 89.3 °F 58.6 °F 34% 30.00 in 10.0 mi SSW 13.8 mph 20.7 mph N/A   Clear
1:55 PM 90.9 °F 89.4 °F 57.2 °F 32% 30.00 in 10.0 mi South 13.8 mph 23.0 mph N/A   Clear
2:15 PM 91.6 °F 90.1 °F 56.7 °F 31% 29.99 in 10.0 mi SSW 12.7 mph 21.9 mph N/A   Clear
2:35 PM 92.8 °F 91.1 °F 55.8 °F 29% 29.98 in 10.0 mi SSW 16.1 mph 23.0 mph N/A   Clear
2:55 PM 93.6 °F 91.8 °F 55.4 °F 28% 29.98 in 10.0 mi SSW 16.1 mph 25.3 mph N/A   Clear
3:15 PM 94.6 °F 92.6 °F 54.9 °F 26% 29.98 in 10.0 mi South 18.4 mph 23.0 mph N/A   Clear
3:35 PM 95.2 °F 93.3 °F 55.0 °F 26% 29.97 in 10.0 mi South 17.3 mph 25.3 mph N/A   Clear
3:55 PM 95.7 °F 93.7 °F 54.7 °F 25% 29.96 in 10.0 mi South 17.3 mph 25.3 mph N/A   Clear
4:15 PM 95.4 °F 93.5 °F 55.8 °F 26% 29.95 in 10.0 mi South 18.4 mph 26.5 mph N/A   Clear
4:35 PM 95.9 °F 93.6 °F 54.1 °F 24% 29.95 in 10.0 mi SSW 17.3 mph 24.2 mph N/A   Clear
4:55 PM 95.5 °F 93.1 °F 53.4 °F 24% 29.94 in 10.0 mi South 23.0 mph 28.8 mph N/A   Clear
5:15 PM 96.1 °F 93.8 °F 53.6 °F 24% 29.94 in 10.0 mi South 15.0 mph 27.6 mph N/A   Clear
5:35 PM 96.1 °F 93.8 °F 53.2 °F 24% 29.93 in 10.0 mi SSW 20.7 mph 26.5 mph N/A   Clear
5:55 PM 95.9 °F 93.3 °F 53.1 °F 23% 29.93 in 10.0 mi South 19.6 mph 26.5 mph N/A   Clear
6:15 PM 95.5 °F 93.4 °F 54.3 °F 25% 29.93 in 10.0 mi South 18.4 mph 25.3 mph N/A   Clear
6:35 PM 96.4 °F 94.0 °F 53.2 °F 23% 29.93 in 10.0 mi South 19.6 mph 24.2 mph N/A   Clear
6:55 PM 93.4 °F 92.5 °F 58.1 °F 31% 29.92 in 10.0 mi South 23.0 mph 29.9 mph N/A   Clear
7:15 PM 91.6 °F 91.0 °F 59.4 °F 34% 29.92 in 10.0 mi South 25.3 mph 32.2 mph N/A   Clear
7:35 PM 90.7 °F 89.8 °F 58.8 °F 34% 29.93 in 10.0 mi South 25.3 mph 32.2 mph N/A   Clear
7:55 PM 89.6 °F 88.9 °F 59.2 °F 36% 29.94 in 10.0 mi South 24.2 mph 33.4 mph N/A   Clear
8:15 PM 88.7 °F 88.3 °F 59.9 °F 38% 29.95 in 10.0 mi South 18.4 mph 27.6 mph N/A   Clear
8:35 PM 87.3 °F 87.0 °F 59.9 °F 40% 29.95 in 10.0 mi South 19.6 mph 24.2 mph N/A   Clear
8:55 PM 86.0 °F 85.7 °F 59.9 °F 41% 29.96 in 10.0 mi South 19.6 mph - N/A   Clear
9:15 PM 85.1 °F 84.8 °F 59.7 °F 42% 29.96 in 10.0 mi South 17.3 mph - N/A   Clear
9:35 PM 83.5 °F 83.6 °F 59.9 °F 45% 29.98 in 10.0 mi South 15.0 mph 19.6 mph N/A   Clear
9:55 PM 82.4 °F 82.9 °F 60.8 °F 48% 29.99 in 10.0 mi South 13.8 mph 19.6 mph N/A   Clear
10:15 PM 81.5 °F 82.0 °F 60.1 °F 48% 30.00 in 10.0 mi South 13.8 mph 19.6 mph N/A   Clear
10:35 PM 81.9 °F 82.1 °F 59.0 °F 46% 30.00 in 10.0 mi South 17.3 mph 24.2 mph N/A   Clear
10:55 PM 80.6 °F 81.2 °F 59.9 °F 49% 30.00 in 10.0 mi South 11.5 mph - N/A   Clear
11:15 PM 78.8 °F - 61.5 °F 55% 30.00 in 10.0 mi South 17.3 mph 24.2 mph N/A   Clear
11:35 PM 78.3 °F - 62.1 °F 57% 30.00 in 10.0 mi South 16.1 mph 23.0 mph N/A   Clear
11:55 PM 77.4 °F - 62.1 °F 59% 30.00 in 10.0 mi South 11.5 mph - N/A   Clear